SL-16 DEB, 39903

Orbit data source: Space-Track

SL-16 DEB, 39903 is space debris in LEO originally from a launch on Fri, 26 Mar 1993 UTC launched from the Tyuratam Missile And Space Complex (TTMTR). Debris objects in space refer to the collection of defunct objects orbiting the Earth. Examples of debris include non-operational satellites, rocket bodies, and fragments generated from explosions, collisions, or faulty payload assembly.

Loading next visibility...
Identifier
39903, 1993-016CD
Orbit
LEO
Country
Flag of CISCIS
Related business
Manufacturer
Unknown
Mission
Spacecraft
Bus & Motor
Unknown
Mass
Unknown
Launch date (UTC)
1993-03-26 (33 years ago)
Launch vehicle
Unknown
Launch site
Tyuratam Missile And Space Complex (TTMTR)
Object type
Payload
Rocket body
Debris
Shape & HBR
Unknown shape, 0.1 m
Radar Cross Section
Small (<0.1 m²)

Expand to show TLE details & history
Last TLE update: 4 days ago

TLE from 4 days ago
0 SL-16 DEB
1 39903U 93016CD  25291.66326606  .00000308  00000-0  27695-3 0  9990
2 39903  70.9890 255.3398 0135110 183.5816 356.5753 13.87577864576904
Epoch: 2025-10-18T15:55Z
TLE epoch observation values (Epoch: 2025-10-18T15:55:06.187Z)
Latitude
-0.16566°
Longitude
169.22974°
Altitude
840.853 km
Speed
7.483 km/s
True Right ascension
05h 01m 35s
True Declination
0° 09' 53"
Sunlit
Object was in full shadow at epoch
Visualization orbit readout
Latitude
Unknown
Longitude
Unknown
Altitude
Unknown
Speed
Unknown
Apparent Right ascension
Unknown
Apparent Declination
Unknown
Sunlit
N/A
Visualization observer readout
Local Sidereal Time
17:49:16
Azimuth
Unknown
Elevation
Unknown
Doppler factor
Unknown
Orbital elements
Apogee altitude
1,033.893 km
Perigee altitude
836.275 km
Semi-major axis
7,313.221 km
Eccentricity
0.01351
Inclination
70.989°
RAAN
255.3398°
Arg. of periapsis
183.5816°
True anomaly
356.48123°
Mean anomaly
356.5753°
Eccentric anomaly
356.52842°
Mean motion
3.4704 °/min
Orbital period
103.73 mins
BSTAR
0.00027695
Loading maneuver chart data...
Computing Atmospheric mass density...
Loading historical data...
Loading historical data...
Loading historical data...
Loading historical data...
Loading historical data...
Loading historical data...
Loading historical data...

Documentation

Showing up to 5 results
|